Retour au catalogue

FLOCK 4Q 4

ActifScienceSSO
NORAD 58327·PAYLOAD·🇺🇸 United States

Lancé Nov 11, 2023 depuis Vandenberg Space Force Base

Loading…

Prochains Passages (prochaines 24 heures)

TLE

FraisSource: CelesTrak SupGP

Époque: Sep 14, 2026, 12:45 UTC

1 58327C 23174BZ  26257.53138889  .00029842  00000+0  48972-3 0  2573
2 58327  97.3779 347.4454 0004915 185.3310 184.4159 15.52415072    15

Suivez FLOCK 4Q 4 en temps réel avec AllMySat

Download on the App Store